Temp
9 9 9 9 9 9 9 9 8 8 8 8 8 8 8 8 8 8 8 8 8 7 7 7 7 7 6 7 6 6 6 6 6
8 9 9 9 9 9 9 8 8 8 8 8 8 8 8 8 8 8 8 8 7 7 7 7 7 7 7 7 6 5 5 5 5
8 8 8 8 8 8 8 8 8 8 8 8 8 8 8 8 8 8 8 7 7 7 7 7 7 7 7 7 6 6 6 6 6
8 8 8 8 8 8 8 8 8 8 8 8 8 7 8 7 7 7 7 7 7 7 7 7 7 7 7 7 7 6 6 6 6
8 8 8 8 7 7 7 7 7 7 7 7 7 7 7 7 7 7 7 7 7 7 7 7 7 7 7 7 7 6 6 6 6
8 8 8 8 7 7 7 7 7 7 7 7 7 7 7 7 6 6 6 6 6 6 6 6 7 7 7 6 7 6 6 6 6
8 8 8 8 8 7 7 7 7 7 7 7 7 6 6 6 6 6 6 6 6 6 6 6 6 6 6 6 6 6 6 6 6
8 8 8 8 8 8 7 7 7 7 7 7 7 6 6 6 6 6 6 6 6 6 6 6 6 6 6 6 6 6 6 6 6
8 8 8 8 7 7 7 7 7 7 7 7 7 6 6 6 6 6 6 6 6 6 6 5 5 6 6 6 6 5 5 5 5
8 8 8 7 7 7 7 7 7 7 7 7 7 6 6 6 6 6 5 5 6 5 5 5 5 5 5 5 5 5 5 5 5
7 7 7 7 7 7 7 7 7 7 6 7 7 7 6 6 6 6 5 5 5 5 5 5 5 5 5 5 5 5 5 4 4
7 7 7 7 7 7 7 7 7 7 7 6 6 6 6 6 6 5 5 5 5 5 5 5 5 5 5 4 4 4 4 4 4
7 7 6 6 6 6 6 6 6 6 6 6 6 6 6 6 5 5 5 5 5 5 5 5 4 4 4 4 4 4 4 4 3
6 6 6 6 5 5 5 5 5 5 5 5 5 5 5 5 5 5 5 5 5 5 5 4 4 4 4 4 3 3 3 3 3
5 5 5 5 5 5 5 5 4 5 4 5 5 5 5 5 5 5 5 4 4 4 4 4 4 4 4 3 3 3 3 3 3
5 5 5 5 4 4 4 4 4 4 4 4 4 4 4 4 4 4 4 4 4 4 4 4 4 4 3 3 3 3 2 2 2
4 4 4 4 4 4 4 4 4 3 3 3 3 3 3 4 4 4 4 4 3 3 3 4 3 3 3 3 3 2 2 2 2
4 4 4 4 4 4 4 4 3 3 3 3 3 3 3 3 3 3 3 3 3 3 3 3 3 3 3 2 3 1 1 1 1
5 4 4 4 3 3 3 3 3 3 3 2 2 2 2 2 2 3 3 3 3 3 2 2 2 2 2 1 2 1 1 1 1
5 4 4 3 3 3 3 3 3 3 2 2 3 2 2 2 2 2 2 2 2 1 1 1 1 1 1 1 1 1 1 0 1
Height
3195 3194 3194 3193 3193 3193 3193 3192 3192 3192 3191 3191 3191 3192 3191 3191 3190 3190 3189 3189 3188 3188 3188 3188 3187 3187 3186 3186 3185 3185 3184 3183 3182
3196 3196 3195 3195 3195 3195 3194 3194 3194 3193 3193 3192 3192 3193 3192 3192 3191 3190 3190 3189 3189 3188 3189 3188 3188 3187 3186 3185 3185 3185 3184 3183 3182
3197 3197 3196 3196 3196 3196 3196 3196 3195 3195 3194 3194 3193 3193 3193 3192 3192 3191 3190 3190 3190 3189 3189 3188 3188 3187 3186 3185 3184 3184 3183 3182 3182
3199 3199 3198 3198 3198 3198 3197 3197 3197 3197 3196 3195 3195 3194 3194 3194 3193 3192 3191 3191 3190 3189 3188 3188 3187 3186 3185 3184 3184 3183 3182 3181 3180
3199 3199 3200 3200 3199 3199 3199 3198 3198 3198 3197 3196 3196 3196 3195 3195 3194 3193 3192 3191 3190 3189 3188 3187 3186 3185 3184 3183 3182 3181 3180 3179 3179
3198 3199 3199 3200 3200 3200 3200 3199 3198 3198 3197 3196 3196 3195 3195 3195 3194 3193 3192 3191 3190 3189 3187 3186 3185 3184 3183 3182 3181 3180 3179 3178 3178
3198 3198 3198 3198 3198 3199 3199 3199 3198 3197 3196 3195 3194 3194 3194 3193 3193 3192 3191 3189 3188 3186 3185 3184 3183 3182 3181 3181 3180 3179 3178 3178 3176
3196 3197 3197 3196 3196 3196 3196 3196 3196 3196 3195 3194 3193 3192 3192 3192 3191 3190 3189 3188 3186 3184 3183 3182 3181 3181 3180 3179 3178 3178 3178 3177 3176
3194 3194 3194 3194 3194 3193 3193 3193 3193 3193 3192 3191 3191 3190 3189 3190 3189 3187 3187 3185 3183 3182 3180 3180 3179 3178 3177 3177 3176 3176 3176 3175 3174
3190 3190 3190 3190 3191 3191 3190 3189 3189 3188 3189 3188 3187 3186 3185 3186 3186 3185 3184 3182 3180 3179 3177 3177 3176 3175 3175 3174 3174 3174 3173 3173 3172
3186 3187 3187 3186 3186 3186 3186 3185 3185 3184 3183 3183 3183 3183 3181 3181 3182 3181 3180 3179 3177 3175 3174 3173 3173 3172 3172 3171 3170 3170 3170 3170 3170
3181 3181 3182 3182 3182 3182 3181 3180 3181 3181 3181 3179 3178 3177 3176 3175 3177 3177 3176 3175 3173 3172 3171 3170 3169 3168 3168 3167 3167 3167 3167 3167 3166
3176 3176 3176 3177 3176 3176 3175 3174 3174 3174 3174 3174 3173 3172 3171 3170 3170 3171 3171 3170 3169 3168 3167 3166 3165 3164 3164 3163 3163 3163 3163 3162 3162
3170 3170 3171 3170 3170 3170 3169 3168 3168 3168 3168 3167 3167 3166 3165 3164 3162 3163 3165 3165 3164 3162 3162 3161 3160 3160 3159 3159 3158 3158 3158 3158 3158
3164 3164 3164 3163 3162 3162 3163 3162 3161 3161 3161 3160 3159 3159 3159 3157 3157 3155 3156 3158 3158 3157 3156 3155 3155 3154 3154 3153 3153 3152 3152 3152 3152
3156 3156 3156 3156 3155 3155 3154 3155 3154 3154 3154 3151 3150 3150 3150 3150 3151 3148 3147 3149 3150 3151 3150 3149 3148 3148 3147 3147 3147 3147 3146 3145 3145
3147 3147 3147 3148 3147 3147 3147 3146 3146 3145 3145 3144 3142 3139 3141 3142 3144 3143 3142 3141 3140 3142 3143 3143 3141 3140 3140 3140 3140 3140 3140 3139 3138
3140 3138 3138 3139 3139 3138 3138 3138 3137 3138 3136 3135 3135 3131 3130 3132 3134 3134 3134 3133 3132 3132 3134 3134 3133 3133 3132 3131 3131 3132 3130 3130 3131
3132 3130 3130 3129 3129 3129 3129 3128 3127 3127 3127 3126 3124 3124 3123 3121 3121 3125 3125 3124 3123 3123 3122 3122 3122 3122 3123 3123 3122 3121 3121 3119 3118
3123 3123 3122 3121 3120 3119 3118 3119 3119 3117 3117 3115 3114 3114 3113 3113 3112 3112 3115 3114 3114 3113 3111 3110 3109 3110 3111 3111 3111 3110 3110 3108 3109
Wind_Speed
11 11 11 11 11 10 9 8 7 6 5 4 5 5 6 6 5 5 6 6 7 7 6 7 6 5 6 6 5 6 6 5 6
11 11 11 11 11 10 9 9 8 7 6 6 6 6 6 6 6 6 6 7 7 6 6 6 6 5 5 5 6 5 4 4 3
10 10 10 11 11 10 10 9 9 8 8 8 8 8 8 8 7 7 7 7 7 8 8 7 7 6 6 6 6 6 6 5 5
9 8 7 7 7 8 8 9 9 9 8 8 8 8 8 8 8 8 9 8 8 8 8 8 8 8 7 8 7 7 7 7 7
9 8 7 7 7 8 8 7 7 7 7 7 8 8 8 8 8 9 9 9 10 10 10 10 10 9 8 7 7 7 6 6 6
6 7 7 8 8 8 9 8 8 8 8 8 9 9 10 10 10 10 10 11 11 11 12 12 11 11 10 9 8 7 6 6 6
7 7 6 5 6 8 9 9 9 10 10 10 10 10 10 10 11 12 13 14 15 15 14 12 12 11 10 10 9 8 7 6 5
13 12 11 10 10 9 11 12 13 14 15 15 15 14 14 12 13 14 14 17 18 17 16 14 13 12 12 11 10 9 7 7 6
17 17 17 16 16 15 15 15 16 16 18 19 19 19 18 16 16 15 16 17 17 16 15 14 14 13 13 12 11 9 8 8 7
21 21 21 21 21 21 20 20 20 20 19 20 22 22 22 20 19 18 17 18 18 16 16 16 15 15 13 12 11 11 10 9 8
21 22 23 24 24 25 24 25 24 23 24 24 24 24 25 25 22 21 19 19 19 17 17 16 16 15 15 14 13 12 12 11 10
23 23 22 23 25 27 29 28 28 27 27 27 27 27 27 28 25 23 22 20 20 20 18 18 17 16 16 15 15 14 14 14 13
24 24 25 26 26 26 26 28 29 28 29 28 28 29 30 31 30 27 25 23 22 21 21 20 19 18 17 17 16 16 17 17 17
28 27 27 28 29 30 30 30 29 28 28 29 29 30 31 32 34 32 28 27 25 23 22 23 21 20 19 18 18 18 19 20 20
32 31 30 30 30 30 31 31 32 32 32 33 34 34 34 34 34 35 32 30 28 26 25 25 24 23 22 20 20 20 21 22 23
36 36 35 33 33 33 33 33 34 34 33 36 38 38 36 35 33 34 35 33 31 29 28 27 27 26 25 24 22 22 22 23 24
41 41 40 38 37 37 37 38 37 37 37 37 38 41 39 37 34 34 34 35 35 32 31 29 29 29 29 27 26 24 28 28 26
42 44 43 43 41 41 41 41 41 39 40 41 41 43 43 39 36 35 35 35 36 36 35 34 31 32 33 33 31 35 31 31 29
36 38 39 39 39 41 43 43 44 44 45 44 45 44 44 44 44 39 38 38 37 36 36 36 37 33 39 39 37 39 38 35 34
32 35 37 38 39 39 39 41 43 46 48 51 51 49 50 48 48 47 43 42 40 39 38 40 40 40 43 43 40 42 42 44 40
Wind_Direction
52 52 49 50 55 59 63 65 65 65 62 57 49 46 41 35 19 18 29 26 41 32 34 25 25 25 40 16 16 25 29 44 45
53 53 52 51 52 52 56 57 57 55 52 49 47 41 39 41 33 36 32 27 19 16 11 9 2 357 347 344 345 17 20 23 44
48 50 53 52 52 53 54 52 49 46 41 38 37 39 36 40 27 30 30 19 12 359 0 356 353 342 336 332 325 317 308 300 291
28 33 36 40 44 43 43 39 36 33 29 24 23 24 26 32 16 18 15 15 6 355 353 348 340 336 331 327 318 309 307 302 297
7 10 12 17 22 23 27 22 16 8 358 355 353 354 353 2 354 356 352 356 351 343 338 336 334 332 325 320 317 312 305 299 292
329 334 344 348 349 347 351 355 352 348 342 339 341 345 345 347 342 334 328 330 329 325 323 323 321 318 316 316 312 308 305 303 302
256 270 285 299 314 313 312 309 308 307 307 306 309 313 322 328 329 328 330 326 322 316 310 306 305 305 307 305 303 301 299 298 299
260 262 266 268 273 276 293 298 298 298 298 299 301 301 303 306 309 316 322 324 322 315 310 305 300 300 300 297 296 297 298 297 298
264 268 269 268 267 268 274 282 290 291 295 297 299 297 297 299 297 300 308 317 320 315 311 307 304 298 294 292 292 291 292 292 294
263 266 269 269 271 272 273 273 276 278 279 287 292 292 292 294 292 292 296 307 315 311 306 302 300 296 290 287 283 283 283 283 283
267 271 273 274 273 273 272 274 274 277 279 281 284 288 289 290 289 286 288 298 308 307 301 299 296 291 286 281 276 274 273 273 275
272 274 275 280 280 277 274 272 273 275 276 280 282 284 285 287 288 284 282 287 296 301 299 296 290 286 281 277 275 271 268 268 269
278 280 282 280 279 279 282 282 282 280 278 277 279 281 283 285 286 282 280 279 284 292 295 293 288 283 279 277 273 269 267 267 266
282 284 286 283 280 278 280 283 285 284 282 280 277 278 281 284 284 284 280 274 275 281 286 287 285 281 277 274 272 269 270 270 270
279 281 283 282 279 278 278 280 280 279 280 279 279 278 278 278 281 282 280 276 271 273 278 280 282 279 277 273 271 269 270 272 271
281 282 283 282 278 277 278 279 278 277 277 278 277 279 278 274 276 278 280 278 273 268 269 273 275 276 274 272 269 268 268 270 267
279 279 281 281 278 276 275 277 279 279 276 275 277 276 276 275 276 278 279 279 276 269 266 267 270 271 270 267 265 270 279 268 263
272 277 279 279 276 275 276 274 275 275 275 275 274 275 276 276 274 276 277 277 277 275 268 266 264 267 269 263 260 268 274 267 263
266 270 274 276 275 273 274 274 274 274 272 271 273 274 276 277 277 275 276 276 273 274 268 263 261 259 266 264 259 262 271 264 257
260 261 264 268 271 273 274 272 272 274 275 274 274 274 277 275 277 278 278 276 276 273 269 263 259 258 257 260 258 259 266 270 260